Location: Bishopstone
(51.0167°N, 1.9000°W)
Time: 21:33:22
(UTC+00:00)

USA 32 - Pass Details

Date: 16 September 2019
Orbit: 777 x 783 km, 85.0° (Epoch: 21 September)

Event Time Altitude Azimuth Distance (km) Brightness Sun altitude
Rises 18:51:33 0° 353° (N) 3,273 7.5 -5.7°
Reaches altitude 10° 18:53:55 10° 354° (N) 2,341 6.8 -6.1°
Maximum altitude 18:59:11 87° 83° (E) 787 4.1 -6.9°
Drops below altitude 10° 19:04:25 10° 174° (S) 2,326 6.3 -7.7°
Sets 19:06:45 0° 175° (S) 3,250 7.0 -8.0°
